This is the latest recevied weather packets stored in our database for station/object W1LBM. If no packets are shown the sender has not sent any weather packets the latest 10 day(s).
| Time | Temp. | Humidity | Pressure | Rain* | Wind** | Luminosity | Snow |
|---|---|---|---|---|---|---|---|
| 1778069912 | 17.22° C | 79% | 1014 hPa | 0 mm | - | 141 W/m² | - |
| 1778069608 | 17.22° C | 80% | 1013.8 hPa | 0 mm | - | 147 W/m² | - |
| 1778069305 | 16.67° C | 80% | 1013.9 hPa | 0 mm | - | 141 W/m² | - |
| 1778069003 | 16.67° C | 81% | 1014 hPa | 0 mm | - | 133 W/m² | - |
| 1778068700 | 16.67° C | 81% | 1014.2 hPa | 0 mm | - | 144 W/m² | - |
| 1778068398 | 16.11° C | 83% | 1014.4 hPa | 0 mm | - | 121 W/m² | - |
| 1778068096 | 15.56° C | 85% | 1014.3 hPa | 0 mm | - | 121 W/m² | - |
| 1778067794 | 15.56° C | 85% | 1014.4 hPa | 0 mm | - | 52 W/m² | - |
| 1778067492 | 15.56° C | 84% | 1014.3 hPa | 0 mm | - | 41 W/m² | - |
| 1778067189 | 15.56° C | 84% | 1014.5 hPa | 0 mm | - | 63 W/m² | - |
| 1778066886 | 16.11° C | 84% | 1014.6 hPa | 0 mm | - | 99 W/m² | - |
| 1778066583 | 15.56° C | 85% | 1014.5 hPa | 0 mm | - | 130 W/m² | - |
| 1778066280 | 15.56° C | 85% | 1014.5 hPa | 0 mm | - | 132 W/m² | - |
| 1778065978 | 16.11° C | 84% | 1014.4 hPa | 0 mm | - | 159 W/m² | - |
| 1778065675 | 15.56° C | 85% | 1014.2 hPa | 0 mm | - | 125 W/m² | - |
| 1778065373 | 15° C | 87% | 1014.3 hPa | 0 mm | - | 95 W/m² | - |
| 1778065069 | 14.44° C | 89% | 1014.2 hPa | 0 mm | - | 70 W/m² | - |
| 1778064766 | 14.44° C | 88% | 1014.4 hPa | 0 mm | - | 45 W/m² | - |
| 1778064464 | 14.44° C | 89% | 1014.3 hPa | 0 mm | - | 37 W/m² | - |
| 1778064161 | 14.44° C | 88% | 1014.3 hPa | 0 mm | - | 28 W/m² | - |
| 1778063858 | 14.44° C | 88% | 1014.3 hPa | 0 mm | - | 33 W/m² | - |
| 1778063555 | 14.44° C | 88% | 1014.4 hPa | 0 mm | - | 32 W/m² | - |
| 1778063253 | 14.44° C | 88% | 1014.4 hPa | 0 mm | - | 32 W/m² | - |
| 1778062951 | 14.44° C | 88% | 1014.1 hPa | 0 mm | - | 33 W/m² | - |
| 1778062647 | 14.44° C | 88% | 1014.3 hPa | 0 mm | - | 33 W/m² | - |
* Rain latest hour (hover to see other rain measurements)
** Current wind speed in m/s (hover to see current wind gust speed)